Volver al catálogo

STARLINK-3591

ActivoComunicacionesVLEO
NORAD 51870·PAYLOAD·🇺🇸 United States

Lanzado Mar 3, 2022 desde Cape Canaveral Space Force Station

Loading…

Próximos Pases (próximas 24 horas)

TLE

ActualizadoSource: CelesTrak SupGP

Época: Sep 14, 2026, 22:00 UTC

1 51870C 22022U   26257.91715278  .00016575  00000+0  47407-3 0  2576
2 51870  53.1580 229.5322 0001344  92.2659 334.3469 15.35399475    19

Sigue STARLINK-3591 en tiempo real con AllMySat

Download on the App Store